Location: Saint Louis
(38.6272°N, 90.1978°W)
Time: 02:17:48
(UTC-05:00)

ISS - Pass Details

Date: 15 September 2013
Orbit: 402 x 404 km, 51.6° (Epoch: 24 May)

Event Time Altitude Azimuth Distance (km) Brightness Sun altitude
Exits shadow 03:55:57 10° 75° (ENE) 1,468 0.3 -31.3°
Enters shadow 04:53:12 -67° 233° (SW) 12,246 4.1 -21.5°
Maximum altitude 05:29:58 32° 329° (NNW) 727 -2.2 -14.8°
